Regional Weather Roundup
Issued by NWS Green Bay, WI

Home | Current Version | Previous Version | Graphics & Text | Print | Product List | Glossary Off
Versions: 1 2 3 4 5 6 7 8 9 10 11 12 13 14 15 16 17 18 19 20 21 22 23 24 25 26 27 28 29 30 31 32 33 34 35 36 37 38 39 40 41 42 43 44 45 46 47 48 49 50

000
ASUS43 KGRB 131910
RWRGRB

NORTH-CENTRAL AND NORTHEAST WISCONSIN REGIONAL WEATHER ROUNDUP
NATIONAL WEATHER SERVICE GREEN BAY WI
200 PM CDT SUN JUL 13 2014

WIZ005-009-010>012-018-019-132000-
NORTH CENTRAL WISCONSIN

CITY           SKY/WX    TMP DP  RH WIND       PRES   REMARKS
IRONWOOD       MOSUNNY  N/A N/A N/A W17       29.84F
MANITOWISH WTR PTSUNNY   66  45  45 NW13      29.88F
ARBOR VITAE    MOSUNNY   72  45  38 W13       29.89S
EAGLE RIVER    MOSUNNY   68  40  35 W12G21    29.88S
LAND O LAKES   MOSUNNY   69  41  36 W12G18    29.89S
RHINELANDER    MOSUNNY   70  47  43 W13G21    29.90F
PHILLIPS       PTSUNNY   68  46  45 W8        29.90F
ANTIGO         SUNNY     69  47  46 NW12G20   29.90S
TOMAHAWK       MOSUNNY   69  46  43 W9G17     29.91F
MERRILL        SUNNY     72  46  40 NW12G18   29.90F
$$

WIZ013-073-132000-
NORTHEAST WISCONSIN

CITY           SKY/WX    TMP DP  RH WIND       PRES   REMARKS
IRON MOUNTAIN  MOSUNNY   73  44  35 W15       29.84F
MARINETTE      MOSUNNY   75  48  38 NW7       29.83F
OCONTO         SUNNY     76  47  34 W13G20    29.85S
$$

WIZ017-030-035>037-045-132000-
CENTRAL WISCONSIN

CITY           SKY/WX    TMP DP  RH WIND       PRES   REMARKS
MEDFORD        SUNNY     69  48  46 W12G20    29.92F
WAUSAU         SUNNY     74  46  36 W16       29.89F
MOSINEE        MOSUNNY   72  46  40 W14G22    29.92F
MARSHFIELD     MOSUNNY   72  48  42 NW10      29.92F
WISC RAPIDS    SUNNY     77  47  34 NW14      29.92F
STEVENS POINT  SUNNY     72  46  38 NW12G20   29.91F
WAUPACA        SUNNY     79  42  27 W10G21    29.89S
SHAWANO        SUNNY     76  45  33 NW14G20   29.87F
CLINTONVILLE   SUNNY     77  41  27 W7        29.87F
$$

WIZ038-039-048-051-132000-
FOX VALLEY

CITY           SKY/WX    TMP DP  RH WIND       PRES   REMARKS
NWS GREEN BAY  SUNNY     79  42  26 NW17G26   29.86F
APPLETON       MOSUNNY   75  46  35 NW14G21   29.89S
OSHKOSH        MOSUNNY   77  58  51 W15G23    29.87F
FOND DU LAC    MOSUNNY   79  61  53 W17G24    29.88S
$$

WIZ022-050-052-132000-
EAST CENTRAL WISCONSIN

CITY           SKY/WX    TMP DP  RH WIND       PRES   REMARKS
STURGEON BAY   SUNNY     75  48  38 NW16      29.86S
MANITOWOC      MOSUNNY   77  58  51 NW18G25   29.86S
SHEBOYGAN      LGT RAIN  73  65  75 W6        29.87S
$$

LMZ563-521-522-541>543-132000-
LAKESHORE

STATION/POSITION TIME  TEMP    WIND        PRES    VSBY  WAVE
                       AIR SEA DIR/SP/G                  HT/PER
                 (UTC) (F)     (DEG/KT/KT) (MB)    (MI)  (FT/S)
SHEBOYGAN LKSHOR 1900   74     290/ 10/ 12 1011.2S
KEWAUNEE LKSHORE 1900   77     300/ 13/ 21 1011.5S
TWO RIVERS CG    1800   78                   N/A       6   2
NORTHPORT PIER   1900   69     320/ 10/ 12 1010.2F
N MID LAKE BUOY  1900   64 60  320/ 12/ 14 1009.6F         1/ 3
MENOMINEE LKSHOR 1900   74     260/  8/ 14 1011.1S
$$



USA.gov is the U.S. government's official web portal to all federal, state and local government web resources and services.